Location: R�serve Fauniques des Laurentides
(47.3100°N, 71.1900°W)
Time: 04:19:16
(UTC-04:00)

Cosmos 1674 - Visible Passes

Search period start: 23 September 2014 00:00
Search period end: 03 October 2014 00:00
Orbit: 514 x 542 km, 82.5° (Epoch: 22 September)

Date Brightness Start Highest point End Pass type
(mag) Time Alt. Az. Time Alt. Az. Time Alt. Az.
23 Sep 4.7 19:30:17 10° NE 19:31:56 12° ENE 19:32:48 12° E visible
23 Sep 3.1 21:04:26 10° NNW 21:08:05 63° WNW 21:08:05 63° WNW visible
24 Sep 4.8 19:19:31 10° NE 19:20:49 11° ENE 19:22:07 10° E visible
24 Sep 2.9 20:53:22 10° NNW 20:57:19 72° W 20:57:26 71° WSW visible
25 Sep 4.9 19:08:54 10° NE 19:09:43 11° ENE 19:10:31 10° ENE visible
25 Sep 2.8 20:42:17 10° NNW 20:46:15 78° W 20:46:49 63° SSW visible
26 Sep 2.7 20:31:12 10° N 20:35:11 85° W 20:36:15 48° S visible
27 Sep 2.7 20:20:07 10° N 20:24:06 88° E 20:25:45 34° S visible
28 Sep 2.6 20:09:02 10° N 20:13:01 81° E 20:15:21 24° SSE visible
29 Sep 2.7 19:57:57 10° N 20:01:56 75° E 20:05:03 16° SSE visible
30 Sep 2.7 19:46:52 10° N 19:50:50 68° E 19:54:47 10° SSE visible
30 Sep 6.0 21:25:11 10° WNW 21:26:13 11° W 21:27:14 10° W visible
01 Oct 2.7 19:35:46 10° N 19:39:44 63° E 19:43:40 10° SSE visible
01 Oct 6.0 21:13:41 10° WNW 21:15:09 12° W 21:16:37 10° WSW visible
02 Oct 2.8 19:24:41 10° N 19:28:37 57° ENE 19:32:32 10° SSE visible
02 Oct 5.9 21:02:17 10° WNW 21:04:05 13° W 21:05:53 10° WSW visible
